User: anonymous   Login
Location: Stull Observatory
(42.2506°N, 77.7903°W)
Time: 22:51:45
(UTC-04:00)
Language:

Abrixas rocket - Orbit

View from above orbital plane
View from above orbital plane
View from above satellite
View from above satellite

Ground track
Ground track

The orbit data is extracted from the following two-line orbital elements,

1 25723U 99022C   17147.52713342 +.00005283 +00000-0 +87174-4 0  9997
2 25723 048.4172 277.5445 0011440 292.6914 067.2821 15.53861020002968
Epoch (UTC): 27 May 2017 12:39:04
Eccentricity: 0.0011440
inclination: 48.4172°
perigee height: 398 km
apogee height: 413 km
right ascension of ascending node: 277.5445°
argument of perigee: 292.6914°
revolutions per day: 15.53861020
mean anomaly at epoch: 67.2821°
orbit number at epoch: 296

The dashed part of the orbit path shows where the satellite is in the earth's shadow,  

DLR